Regional Weather Roundup
Issued by NWS

Home | Current Version | Previous Version | Text Only | Print | Product List | Glossary On
Versions: 1 2 3 4 5 6 7 8 9 10 11 12 13 14 15 16 17 18 19 20 21 22 23 24 25 26 27 28 29 30 31 32 33 34 35 36 37 38 39 40 41 42 43 44 45 46 47 48 49 50
000
ASUS43 KTOP 201808
RWRKS

WEATHER ROUNDUP FOR KANSAS
NATIONAL WEATHER SERVICE GOODLAND KS
100 PM CDT FRI APR 20 2018

NOTE:  "FAIR" INDICATES FEW OR NO CLOUDS BELOW 12,000 FEET WITH NO
SIGNIFICANT WEATHER AND/OR OBSTRUCTIONS TO VISIBILITY.

KSZ001>006-013>018-027>032-041>047-201900-
NORTHWEST KANSAS

CITY           SKY/WX    TMP DP  RH WIND       PRES   REMARKS
GOODLAND       CLOUDY    43  34  70 S17G29    30.15R
6HR MIN TEMP:  41; 6HR MAX TEMP:  46; 6HR PCP: TRACE;

HAYS           CLOUDY    53  31  42 SE21G29   30.20F
HILL CITY      CLOUDY    55  31  39 SE20G30   30.18F
6HR MIN TEMP:  43; 6HR MAX TEMP:  55;

RUSSELL        CLOUDY    55  33  43 SE18G30   30.22F
6HR MIN TEMP:  44; 6HR MAX TEMP:  55;

$$

KSZ061>065-074>080-084>089-201900-
SOUTHWEST KANSAS

CITY           SKY/WX    TMP DP  RH WIND       PRES   REMARKS
DODGE CITY     CLOUDY    57  31  37 SE26G40   30.13F
6HR MIN TEMP:  42; 6HR MAX TEMP:  58;

ELKHART        MOSUNNY   46  41  83 SE20      30.07F
GARDEN CITY    CLOUDY    49  31  49 SE15      30.14S
6HR MIN TEMP:  41; 6HR MAX TEMP:  51;

GREAT BEND     PTSUNNY   56  33  42 SE21G29   30.21F
LIBERAL        CLOUDY    53  32  44 SE25G35   30.09F
PRATT          MOSUNNY   56  31  38 SE21G30   30.22F
6HR MIN TEMP:  40; 6HR MAX TEMP:  56;

$$

KSZ066>073-081>083-090>101-201900-
SOUTHEAST KANSAS

CITY           SKY/WX    TMP DP  RH WIND       PRES   REMARKS
CHANUTE        MOSUNNY   60  30  32 SE14      30.34F
6HR MIN TEMP:  40; 6HR MAX TEMP:  61;

COFFEYVILLE    MOSUNNY   61  34  36 VRB7G20   30.33F
6HR MIN TEMP:  37; 6HR MAX TEMP:  61;

HUTCHINSON     MOSUNNY   62  34  35 SE18G26   30.25F
6HR MIN TEMP:  41; 6HR MAX TEMP:  63;

MEDICINE LODGE   N/A     60  34  37 SE14G28   30.21F
NEWTON         MOSUNNY   60  32  34 SE16      30.29F
PARSONS        MOSUNNY   61  32  33 SE9       30.34F
6HR MIN TEMP:  40; 6HR MAX TEMP:  61;

WICHITA INTL   CLOUDY    62  33  33 SE20G25   30.27F
6HR MIN TEMP:  43; 6HR MAX TEMP:  62;

WICHITA JABRA  MOSUNNY   59  32  36 SE17      30.28F
6HR MIN TEMP:  38; 6HR MAX TEMP:  60;

WICHITA MCCONL MOSUNNY   61  30  31 S15G23    30.28
WINFIELD       PTSUNNY   61  33  35 SE15      30.29F
6HR MIN TEMP:  42; 6HR MAX TEMP:  62;

$$

KSZ007>012-019>026-033>040-048>060-102>105-201900-
NORTHEAST KANSAS

CITY           SKY/WX    TMP DP  RH WIND       PRES   REMARKS
CONCORDIA      CLOUDY    57  29  34 SE17G25   30.28F
6HR MIN TEMP:  39; 6HR MAX TEMP:  57;

EMPORIA        MOSUNNY   59  31  34 SE16G24   30.32F
6HR MIN TEMP:  34; 6HR MAX TEMP:  60;

LAWRENCE       MOSUNNY   60  30  32 SE15G22   30.38F
6HR MIN TEMP:  32; 6HR MAX TEMP:  61;

MANHATTAN      MOSUNNY   62  30  29 SE17G30   30.32F
6HR MIN TEMP:  34; 6HR MAX TEMP:  63;

MARYSVILLE     MOSUNNY   59  32  36 SE14G20   30.33F
OLATHE IND     CLOUDY    58  30  34 SE15G28   30.38F
6HR MIN TEMP:  37; 6HR MAX TEMP:  58;

OLATHE EXE     CLOUDY    55  29  36 SE14G23   30.37F
6HR MIN TEMP:  36; 6HR MAX TEMP:  56;

SALINA         CLOUDY    62  33  33 SE21G26   30.28F
6HR MIN TEMP:  42; 6HR MAX TEMP:  62;

TOPEKA BILLARD CLOUDY    60  33  36 SE15G23   30.36F
6HR MIN TEMP:  33; 6HR MAX TEMP:  60;

TOPEKA FORBES  CLOUDY    61  31  32 SE14G23   30.35F
6HR MIN TEMP:  34; 6HR MAX TEMP:  61;

$$




USA.gov is the U.S. government's official web portal to all federal, state and local government web resources and services.